[[{"header":{"parameterUnit":"m.s-1","parameterCategory":2,"la1":30.2991,"la2":30.254,"lo1":-89.0895,"lo2":-89.0444,"dy":0.0017,"dx":0.0017,"nx":28,"ny":28,"refTime":"2025-04-16T21:00:00:Z","depth":"0","parameterNumber":2,"parameterNumberName":"U-component_of_CURRENTS"},"data":[0,0,0,0,0,0,0,0,0,0,0,0,0,0,0,0,0,0,0,0,0,0,0,0,0,0,0,0,0,0,0,0,0,0,0,0,0,0,0,0,0,0,0,0,0,0,0,0,0,0,0,0,0,0,0,0,0,0,0.3335,0.3336,0,0.341,0.3411,0.3411,0.3434,0.3434,0.3434,0.3433,0.345,0.345,0.3451,0,0,0,0,0,0,0,0,0,0,0,0,0,0.3249,0.325,0.3335,0.3336,0.3337,0.341,0.3411,0.3411,0.3434,0.3434,0.3434,0.3433,0.3449,0.345,0.3451,0,0,0,0,0,0,0,0,0,0,0,0,0,0.3299,0.325,0.3335,0.3358,0.3361,0.341,0.3411,0.3412,0.3434,0.3434,0.3433,0.3433,0.3449,0.345,0.3451,0.3463,0,0,0.3454,0.3454,0,0,0,0,0,0,0,0,0.3296,0.3302,0.3354,0.3357,0.336,0.3414,0.3386,0.3426,0.3434,0.3404,0.3433,0.3433,0.3434,0.3436,0.3449,0.3463,0.3464,0.3454,0.3454,0.3455,0.3455,0,0,0,0,0,0,0,0.3293,0.3299,0.3363,0.3355,0.3359,0.3379,0.3385,0.3394,0.3417,0.3407,0.3409,0.3421,0.3435,0.3448,0.3449,0.3464,0.3454,0.3455,0.3455,0.3456,0.3548,0.3549,0,0,0,0,0,0,0.3286,0.3296,0.336,0.3365,0.3329,0.338,0.3387,0.3395,0.3419,0.3423,0.3421,0.3422,0.3446,0.3448,0.345,0.3499,0.3455,0.3456,0.3456,0.3546,0.3548,0.355,0,0,0,0,0,0,0.3284,0.3291,0.3357,0.3334,0.3344,0.3382,0.3391,0.3397,0.3419,0.343,0.3433,0.3437,0.3446,0.3448,0.3473,0.3499,0.3456,0.3457,0.3544,0.3546,0.3549,0.3576,0,0,0,0,0,0,0.3281,0.3289,0.3289,0.3333,0.3345,0.3389,0.3392,0.3399,0.3427,0.3428,0.3445,0.3446,0.3446,0.3472,0.3474,0.3499,0.3458,0.3541,0.3545,0.3548,0.3573,0.3579,0.3585,0,0,0,0,0,0.3277,0.3274,0.3289,0.3297,0.3345,0.339,0.3397,0.3422,0.3428,0.3439,0.3457,0.3446,0.3497,0.3474,0.3476,0.3502,0.3539,0.3544,0.3548,0.357,0.3578,0.3585,0,0,0,0,0,0,0.3228,0.3278,0.3294,0.3304,0.3348,0.3394,0.3403,0.3428,0.3453,0.345,0.3462,0.3465,0.3499,0.3501,0.3476,0.3543,0.3519,0.3524,0.3536,0.3543,0.3549,0.3565,0.3458,0,0,0,0,0,0.322,0.3234,0.3289,0.3297,0.3318,0.3365,0.3385,0.3408,0.3439,0.345,0.3465,0.3487,0.3519,0.353,0.3549,0.3578,0.3643,0.3601,0.3607,0.3612,0.363,0.375,0.3769,0.3564,0.3564,0.3564,0,0,0.3201,0.3232,0.3237,0.3288,0.332,0.3359,0.3375,0.3408,0.3443,0.3446,0.3483,0.3505,0.3533,0.3571,0.3587,0.3573,0.3712,0.3618,0.3622,0.3637,0.3757,0.3777,0.3795,0.3567,0.3566,0.3566,0,0,0.3181,0.3201,0.3216,0.3257,0.3313,0.3347,0.3361,0.3415,0.3441,0.3485,0.3504,0.3548,0.3578,0.3617,0.3638,0.3694,0.3741,0.3695,0.3736,0.3853,0.3871,0.3887,0.4025,0.4053,0.3697,0.3697,0.3697,0,0.3161,0.319,0.3226,0.3262,0.3296,0.3345,0.3379,0.3418,0.3473,0.351,0.3497,0.3601,0.3608,0.3695,0.371,0.3708,0.3791,0.3699,0.3862,0.3879,0.3896,0.4032,0.4064,0.3699,0.3699,0.3699,0.3699,0,0.3164,0.3195,0.3208,0.3272,0.3309,0.3345,0.341,0.3449,0.3484,0.3535,0.3622,0.3655,0.3724,0.3733,0.3732,0.3855,0.3883,0.3856,0.3841,0.3918,0.4057,0.4089,0.3702,0.3701,0.3701,0.37,0,0,0.3111,0.3195,0.3201,0.3252,0.3321,0.3366,0.3416,0.3502,0.3582,0.3619,0.3735,0.3769,0.3805,0.3834,0.3854,0.3943,0.4124,0.3946,0.3952,0.4081,0.4418,0.436,0.439,0.4127,0.4132,0.4136,0.4479,0,0.3112,0.3183,0.3214,0.3291,0.3345,0.3403,0.3467,0.3547,0.3624,0.3747,0.3804,0.3913,0.384,0.3905,0.3973,0.4111,0.4206,0.4036,0.4326,0.4336,0.4272,0.4423,0.4252,0.4535,0.451,0.4515,0.4519,0,0.3119,0.3172,0.324,0.3354,0.3381,0.3426,0.3564,0.3631,0.3789,0.3857,0.3954,0.4024,0.4169,0.4098,0.4343,0.4244,0.4326,0.441,0.4424,0.4381,0.4336,0.4449,0.4595,0.4425,0.4569,0.4565,0.4561,0,0.3122,0.3199,0.3259,0.3295,0.3417,0.346,0.3525,0.3665,0.3786,0.3955,0.4091,0.4213,0.436,0.4458,0.4572,0.4499,0.4859,0.4784,0.481,0.4808,0.4726,0.4707,0.4734,0.4953,0.4953,0.4952,0.4951,0,0.3156,0.3221,0.3267,0.3324,0.3453,0.3482,0.3647,0.3742,0.3906,0.408,0.4158,0.4336,0.4462,0.4651,0.4691,0.4871,0.4955,0.4872,0.4905,0.4731,0.4709,0.4602,0.452,0.4965,0.4962,0.4959,0.4957,0,0.3258,0.3246,0.3364,0.3447,0.3484,0.3596,0.3771,0.3883,0.4012,0.4254,0.4326,0.454,0.4763,0.4874,0.5104,0.5071,0.5076,0.5229,0.5021,0.5019,0.4833,0.4759,0.4753,0.461,0.5357,0.5358,0.5359,0,0.3372,0.3412,0.3509,0.3567,0.3626,0.376,0.3854,0.3966,0.4076,0.4365,0.4484,0.4765,0.4921,0.5238,0.5251,0.5367,0.5146,0.5258,0.5051,0.4846,0.4791,0.4593,0.4456,0.4989,0.4986,0.4984,0.4983,0,0.3597,0.3582,0.365,0.3758,0.3837,0.3956,0.4061,0.4156,0.4271,0.4441,0.4628,0.4774,0.5072,0.5108,0.5254,0.5279,0.4988,0.5219,0.5072,0.457,0.4299,0.4167,0.4756,0.4965,0.4967,0.4968,0.4969,0.497,0.3762,0.3833,0.3826,0.3936,0.4012,0.4038,0.4083,0.4146,0.4265,0.4379,0.4605,0.4727,0.4902,0.5078,0.5075,0.493,0.4902,0.477,0.4735,0.4581,0.43,0.485,0.5025,0.5027,0.5029,0.503,0.5032,0,0.3884,0.3879,0.3993,0.4016,0.4054,0.4077,0.4129,0.4084,0.41,0.4262,0.4369,0.4494,0.4567,0.4645,0.4614,0.4453,0.4245,0.4322,0.399,0.3905,0.4482,0.4312,0.4257,0.4257,0.4257,0.4258,0.4258,0.4258,0.3923,0.3952,0.3954,0.3974,0.3993,0.3927,0.3896,0.3843,0.3886,0.386,0.3884,0.4,0.4195,0.4303,0.414,0.4051,0.3703,0.3585,0.3544,0.392,0.3956,0.399,0.3807,0.3647,0.3647,0.2797,0.2791,0.2786]},{"header":{"parameterUnit":"m.s-1","parameterCategory":2,"la1":30.2991,"la2":30.254,"lo1":-89.0895,"lo2":-89.0444,"dy":0.0017,"dx":0.0017,"nx":28,"ny":28,"refTime":"2025-04-16T21:00:00:Z","depth":"0","parameterNumber":3,"parameterNumberName":"V-component_of_CURRENTS"},"data":[0,0,0,0,0,0,0,0,0,0,0,0,0,0,0,0,0,0,0,0,0,0,0,0,0,0,0,0,0,0,0,0,0,0,0,0,0,0,0,0,0,0,0,0,0,0,0,0,0,0,0,0,0,0,0,0,0,0,0.0074,0.0073,0,-0.0007,-0.0008,-0.0009,-0.0075,-0.0075,-0.0076,-0.0076,-0.0177,-0.0179,-0.0181,0,0,0,0,0,0,0,0,0,0,0,0,0,0.013,0.013,0.0074,0.0073,0.0072,-0.0007,-0.0008,-0.0009,-0.0075,-0.0075,-0.0076,-0.0077,-0.0176,-0.0178,-0.0181,0,0,0,0,0,0,0,0,0,0,0,0,0,0.0082,0.0129,0.0074,0.0031,0.0027,-0.0006,-0.0008,-0.001,-0.0075,-0.0075,-0.0076,-0.0077,-0.0175,-0.0178,-0.0181,-0.0185,0,0,-0.0191,-0.0193,0,0,0,0,0,0,0,0,0.0085,0.008,0.0039,0.0034,0.0029,-0.003,-0.0025,-0.0069,-0.0074,-0.0038,-0.0076,-0.0077,-0.0128,-0.0135,-0.015,-0.0189,-0.0194,-0.0192,-0.0194,-0.0195,-0.0196,0,0,0,0,0,0,0,0.0088,0.0083,0.0041,0.0038,0.0032,0.0002,-0.0006,-0.0034,-0.0079,-0.0041,-0.0045,-0.0052,-0.0131,-0.0147,-0.0153,-0.0195,-0.0191,-0.0194,-0.0196,-0.0198,-0.023,-0.0229,0,0,0,0,0,0,0.0104,0.0086,0.0043,0.0038,0.0057,0.0002,-0.0007,-0.0012,-0.0078,-0.0088,-0.0051,-0.0055,-0.0141,-0.0149,-0.0157,-0.0141,-0.0195,-0.0198,-0.02,-0.0231,-0.023,-0.0229,0,0,0,0,0,0,0.0106,0.0101,0.0047,0.0061,0.0052,0.0002,-0.0003,-0.0013,-0.0025,-0.0085,-0.0097,-0.0053,-0.0142,-0.0152,-0.0171,-0.0146,-0.0199,-0.0202,-0.0232,-0.0231,-0.0229,-0.0124,0,0,0,0,0,0,0.0108,0.0102,0.0107,0.0063,0.0052,0.0047,-0.0002,-0.0014,-0.0028,-0.0033,-0.0091,-0.0101,-0.0143,-0.0166,-0.0174,-0.0151,-0.0205,-0.0234,-0.0232,-0.023,-0.0129,-0.0119,-0.011,0,0,0,0,0,0.011,0.0129,0.0108,0.0103,0.006,0.0048,0.0041,0.0,-0.0027,-0.0017,-0.0062,-0.0099,-0.0159,-0.0167,-0.0178,-0.0155,-0.0235,-0.0232,-0.023,-0.0133,-0.0121,-0.0111,0,0,0,0,0,0,0.0159,0.0123,0.0099,0.0106,0.0085,0.0038,0.0041,0.0011,-0.0018,-0.0027,-0.0088,-0.01,-0.0109,-0.0144,-0.0152,-0.0159,-0.0202,-0.0201,-0.0125,-0.0114,-0.0105,-0.0085,-0.0208,0,0,0,0,0,0.0172,0.0173,0.0136,0.0142,0.0135,0.0088,0.0078,0.0052,0.0018,0.0004,-0.0037,-0.0078,-0.0107,-0.0119,-0.0152,-0.0153,-0.0171,-0.0145,-0.0135,-0.0127,-0.0117,-0.0125,-0.0115,-0.0221,-0.0221,-0.0221,0,0,0.019,0.0172,0.017,0.0152,0.0128,0.0135,0.008,0.0075,0.008,-0.0001,-0.0005,-0.0049,-0.0101,-0.0105,-0.0111,-0.013,-0.0102,-0.0124,-0.0117,-0.0111,-0.0121,-0.0111,-0.0102,-0.0219,-0.0219,-0.0219,0,0,0.0235,0.0214,0.0231,0.0222,0.02,0.0175,0.018,0.0142,0.0126,0.0116,0.0059,0.0035,-0.0009,-0.0037,-0.0058,-0.0016,-0.0057,-0.0028,0.0038,0.0031,0.004,0.0047,0.006,0.0068,-0.002,-0.0019,-0.0019,0,0.026,0.0272,0.0237,0.0255,0.0254,0.0201,0.0224,0.0207,0.0167,0.0164,0.0132,0.0076,0.0026,0.0027,0.0033,0.0006,-0.0001,0.0002,0.0045,0.0051,0.0057,0.0068,0.0075,-0.0014,-0.0015,-0.0015,-0.0016,0,0.0315,0.0327,0.0341,0.0341,0.034,0.0352,0.0324,0.0321,0.029,0.0268,0.026,0.0197,0.0167,0.0147,0.0096,0.0117,0.0099,0.0056,0.0021,0.0075,0.0082,0.0088,-0.0006,-0.0008,-0.001,-0.0011,0,0,0.0361,0.0377,0.038,0.0402,0.0385,0.0397,0.0406,0.0407,0.044,0.0387,0.0429,0.0349,0.0313,0.0286,0.023,0.0215,0.0243,0.0156,0.0153,0.0177,0.0247,0.0218,0.0221,0.0206,0.0207,0.0208,0.0244,0,0.0412,0.0472,0.0456,0.0513,0.0542,0.0505,0.0533,0.0526,0.0516,0.0551,0.0482,0.0503,0.037,0.0383,0.0334,0.0282,0.0259,0.0238,0.0184,0.0183,0.0156,0.0226,0.0206,0.0234,0.0249,0.025,0.0251,0,0.0467,0.0501,0.0569,0.0614,0.0625,0.0656,0.0697,0.0717,0.0733,0.0734,0.0713,0.0675,0.065,0.0542,0.0447,0.0442,0.0344,0.0287,0.0286,0.0224,0.0163,0.0176,0.0243,-0.0015,0.0259,0.0258,0.0257,0,0.0532,0.0579,0.0641,0.0654,0.0698,0.073,0.0755,0.0777,0.0848,0.0877,0.096,0.0865,0.091,0.0744,0.0587,0.0531,0.0502,0.0412,0.029,0.0288,0.0242,0.0234,0.0057,0.0337,0.0337,0.0337,0.0337,0,0.06,0.0658,0.0686,0.0732,0.0845,0.082,0.0951,0.0966,0.1042,0.1183,0.1078,0.1198,0.0967,0.0913,0.0687,0.0529,0.0572,0.0325,0.03,0.028,0.0275,0.0022,-0.0117,0.0338,0.0338,0.0338,0.0338,0,0.0708,0.07,0.0806,0.0863,0.0893,0.0989,0.1124,0.1225,0.1267,0.1461,0.15,0.15,0.1432,0.1179,0.0978,0.0728,0.0398,0.0454,0.0456,0.0428,0.0038,-0.0093,-0.0257,-0.0351,0.0331,0.0331,0.033,0,0.0791,0.0847,0.0948,0.103,0.1078,0.1202,0.1306,0.1354,0.1479,0.1667,0.1791,0.1802,0.1841,0.1526,0.1085,0.0708,0.0443,0.0429,0.0288,0.0034,-0.0131,-0.0222,-0.0296,0.0283,0.0282,0.0281,0.0281,0,0.0978,0.1003,0.1084,0.1232,0.1351,0.15,0.1643,0.1773,0.1864,0.2038,0.2246,0.2301,0.2028,0.1672,0.1145,0.0839,0.0246,0.0404,0.0139,-0.0179,-0.0285,-0.0392,0.025,0.0276,0.0276,0.0276,0.0277,0.0277,0.1142,0.1227,0.1299,0.1441,0.1581,0.1745,0.1881,0.2048,0.2263,0.2509,0.2559,0.2695,0.2145,0.1437,0.1019,0.0194,0.022,-0.0075,-0.0203,-0.0264,-0.0396,0.0243,0.0229,0.0229,0.023,0.023,0.023,0,0.1297,0.1344,0.1499,0.1634,0.1788,0.1827,0.2061,0.2201,0.2457,0.2729,0.2904,0.2698,0.2019,0.129,0.0196,-0.0328,-0.0528,-0.0623,-0.0786,-0.0826,-0.026,-0.0309,-0.0437,-0.0436,-0.0436,-0.0436,-0.0436,-0.0435,0.1372,0.1476,0.1509,0.1738,0.1857,0.2057,0.2182,0.2424,0.2643,0.2937,0.3032,0.3066,0.2396,0.057,-0.066,-0.0925,-0.1287,-0.1355,-0.1504,-0.1181,-0.1141,-0.1103,-0.1184,-0.1494,-0.1495,-0.2016,-0.2022,-0.2026]}],[{"header":{"parameterUnit":"m.s-1","parameterCategory":2,"la1":30.2991,"la2":30.254,"lo1":-89.0895,"lo2":-89.0444,"dy":0.0017,"dx":0.0017,"nx":28,"ny":28,"refTime":"2025-04-16T21:00:00:Z","depth":"2","parameterNumber":2,"parameterNumberName":"U-component_of_CURRENTS"},"data":[0,0,0,0,0,0,0,0,0,0,0,0,0,0,0,0,0,0,0,0,0,0,0,0,0,0,0,0,0,0,0,0,0,0,0,0,0,0,0,0,0,0,0,0,0,0,0,0,0,0,0,0,0,0,0,0,0,0,0.2642,0.2643,0,0.269,0.269,0.2691,0.2724,0.2724,0.2724,0.2725,0.2774,0.2775,0.2776,0,0,0,0,0,0,0,0,0,0,0,0,0,0.2581,0.2581,0.2642,0.2643,0.2644,0.269,0.269,0.2691,0.2724,0.2724,0.2725,0.2725,0.2774,0.2775,0.2776,0,0,0,0,0,0,0,0,0,0,0,0,0,0.2614,0.2582,0.2642,0.2667,0.267,0.269,0.269,0.2691,0.2723,0.2724,0.2725,0.2725,0.2774,0.2775,0.2777,0.2774,0,0,0.2781,0.2782,0,0,0,0,0,0,0,0,0.2612,0.2616,0.2662,0.2665,0.2668,0.2703,0.2687,0.2719,0.2723,0.2701,0.2725,0.2725,0.2751,0.2754,0.276,0.2776,0.2778,0.2781,0.2782,0.2783,0.2783,0,0,0,0,0,0,0,0.261,0.2614,0.266,0.2663,0.2667,0.2676,0.2681,0.2693,0.2721,0.2703,0.2706,0.2714,0.2753,0.2759,0.2761,0.2779,0.2781,0.2782,0.2783,0.2784,0.2885,0.2887,0,0,0,0,0,0,0.2607,0.2612,0.2658,0.2661,0.2643,0.2676,0.2682,0.269,0.2721,0.2727,0.2713,0.2715,0.2756,0.276,0.2763,0.2828,0.2783,0.2784,0.2785,0.2883,0.2885,0.2887,0,0,0,0,0,0,0.2605,0.261,0.2656,0.2639,0.2646,0.2677,0.2685,0.2691,0.2715,0.2729,0.2735,0.2734,0.2756,0.2761,0.2801,0.2828,0.2785,0.2786,0.2881,0.2884,0.2886,0.2915,0,0,0,0,0,0,0.2603,0.2609,0.2614,0.2639,0.2647,0.268,0.2685,0.2691,0.2718,0.2721,0.2748,0.2752,0.2757,0.2799,0.2802,0.2829,0.2787,0.2879,0.2882,0.2885,0.2912,0.2918,0.2924,0,0,0,0,0,0.2601,0.2604,0.2614,0.262,0.2652,0.2681,0.2686,0.2709,0.2718,0.2732,0.2759,0.2753,0.2823,0.2801,0.2805,0.2832,0.2877,0.2881,0.2885,0.2909,0.2917,0.2924,0,0,0,0,0,0,0.2572,0.2608,0.262,0.2632,0.2661,0.2688,0.2702,0.2718,0.2748,0.2756,0.277,0.2776,0.2828,0.2827,0.2802,0.2875,0.2851,0.2856,0.2868,0.2876,0.2882,0.29,0.2788,0,0,0,0,0,0.257,0.2591,0.262,0.2635,0.2649,0.2679,0.2694,0.2712,0.2741,0.2755,0.2777,0.2806,0.2844,0.2856,0.2887,0.2913,0.2953,0.2938,0.2944,0.2949,0.2969,0.3056,0.3072,0.2901,0.2901,0.29,0,0,0.2562,0.2587,0.2598,0.2632,0.2657,0.268,0.269,0.272,0.2749,0.2755,0.2802,0.2832,0.2861,0.2905,0.2926,0.2906,0.302,0.2954,0.2958,0.2976,0.3062,0.3079,0.3094,0.2903,0.2903,0.2902,0,0,0.2559,0.2583,0.2599,0.2625,0.2666,0.2688,0.2701,0.2738,0.2767,0.281,0.2836,0.2883,0.2921,0.2955,0.2975,0.3032,0.3059,0.3041,0.3074,0.3158,0.3173,0.3187,0.3261,0.3281,0.3032,0.3032,0.3033,0,0.2547,0.2575,0.2607,0.263,0.2659,0.2694,0.2719,0.2751,0.2798,0.2841,0.2832,0.2937,0.295,0.3027,0.3048,0.3046,0.31,0.3037,0.3167,0.3181,0.3194,0.3267,0.3289,0.3034,0.3034,0.3034,0.3034,0,0.2549,0.2582,0.2597,0.2644,0.2676,0.2707,0.2755,0.2793,0.2831,0.2878,0.297,0.2996,0.3062,0.3071,0.3074,0.3178,0.3188,0.3172,0.3145,0.3213,0.3286,0.3308,0.3037,0.3036,0.3036,0.3035,0,0,0.25,0.2582,0.2587,0.2622,0.2691,0.2714,0.2777,0.2854,0.2926,0.2965,0.3072,0.3112,0.3146,0.3172,0.3185,0.3247,0.3375,0.325,0.3254,0.3319,0.3575,0.3485,0.3501,0.3388,0.3392,0.3395,0.3587,0,0.2497,0.2549,0.2589,0.2645,0.2686,0.2745,0.2828,0.2906,0.2972,0.3085,0.3137,0.3243,0.3179,0.3235,0.3279,0.3386,0.3436,0.3325,0.3503,0.3509,0.3417,0.3524,0.3219,0.3357,0.3609,0.3612,0.3615,0,0.2488,0.2534,0.2593,0.2701,0.2725,0.2769,0.2902,0.2976,0.3137,0.3201,0.3282,0.3348,0.3462,0.3398,0.3558,0.3498,0.3534,0.3584,0.3592,0.3516,0.3461,0.3331,0.3388,0.3652,0.3649,0.3646,0.3644,0,0.2473,0.2536,0.2591,0.2619,0.2744,0.2795,0.2875,0.3027,0.313,0.3295,0.3395,0.3507,0.3612,0.3675,0.373,0.3682,0.3914,0.3857,0.3798,0.3792,0.3571,0.3538,0.3957,0.3957,0.3956,0.3956,0.3955,0,0.248,0.2517,0.2588,0.2628,0.2744,0.2813,0.2961,0.3061,0.3231,0.3381,0.3462,0.358,0.3694,0.3813,0.3825,0.389,0.398,0.3842,0.3849,0.3571,0.3538,0.3814,0.3794,0.3963,0.3961,0.396,0.3959,0,0.2503,0.2526,0.2602,0.271,0.2759,0.285,0.3029,0.3122,0.328,0.3472,0.3543,0.3715,0.386,0.393,0.4082,0.4021,0.4089,0.4066,0.3728,0.369,0.389,0.387,0.4064,0.4062,0.4061,0.406,0.406,0,0.2553,0.2585,0.2689,0.2703,0.2756,0.2884,0.2997,0.3169,0.3243,0.353,0.3607,0.3824,0.3899,0.4073,0.4041,0.4066,0.4104,0.3794,0.3625,0.3921,0.3909,0.389,0.3872,0.3353,0.3347,0.3342,0.3337,0,0.2633,0.2643,0.2676,0.2718,0.2785,0.2894,0.302,0.3104,0.3306,0.343,0.3571,0.3672,0.3861,0.3755,0.3813,0.377,0.3768,0.3687,0.4131,0.3357,0.3262,0.3245,0.325,0.329,0.3295,0.3298,0.3301,0.3303,0.2672,0.2672,0.2643,0.2681,0.2729,0.2777,0.2817,0.2926,0.3034,0.3149,0.3366,0.3409,0.3515,0.3424,0.3352,0.3309,0.3538,0.3378,0.339,0.3409,0.3276,0.3182,0.3172,0.3175,0.3179,0.3182,0.3184,0,0.2617,0.2568,0.2588,0.2538,0.2494,0.2627,0.2713,0.266,0.2681,0.2921,0.2974,0.2783,0.2782,0.2898,0.2762,0.2781,0.2707,0.2677,0.255,0.2601,0.2645,0.2467,0.2152,0.2149,0.2146,0.2143,0,0,0.2538,0.2415,0.2395,0.2251,0.2274,0.2222,0.225,0.2223,0.2284,0.2269,0.2344,0.26,0.2799,0.2416,0.2394,0.2256,0.2395,0.2168,0.3002,0.2903,0.2942,0.3068,0.2856,0,0,0,0,0]},{"header":{"parameterUnit":"m.s-1","parameterCategory":2,"la1":30.2991,"la2":30.254,"lo1":-89.0895,"lo2":-89.0444,"dy":0.0017,"dx":0.0017,"nx":28,"ny":28,"refTime":"2025-04-16T21:00:00:Z","depth":"2","parameterNumber":3,"parameterNumberName":"V-component_of_CURRENTS"},"data":[0,0,0,0,0,0,0,0,0,0,0,0,0,0,0,0,0,0,0,0,0,0,0,0,0,0,0,0,0,0,0,0,0,0,0,0,0,0,0,0,0,0,0,0,0,0,0,0,0,0,0,0,0,0,0,0,0,0,-0.0064,-0.0065,0,-0.0137,-0.0138,-0.0139,-0.0192,-0.0192,-0.0192,-0.0193,-0.0291,-0.0293,-0.0295,0,0,0,0,0,0,0,0,0,0,0,0,0,-0.0001,-0.0001,-0.0064,-0.0065,-0.0065,-0.0137,-0.0138,-0.0139,-0.0192,-0.0192,-0.0192,-0.0193,-0.029,-0.0292,-0.0295,0,0,0,0,0,0,0,0,0,0,0,0,0,-0.0047,-0.0002,-0.0064,-0.0099,-0.0103,-0.0137,-0.0138,-0.0139,-0.0191,-0.0192,-0.0192,-0.0193,-0.0289,-0.0292,-0.0296,-0.0306,0,0,-0.0306,-0.0308,0,0,0,0,0,0,0,0,-0.0044,-0.0049,-0.0093,-0.0097,-0.0101,-0.0155,-0.0152,-0.0196,-0.0191,-0.0159,-0.0193,-0.0193,-0.0246,-0.0253,-0.0267,-0.0311,-0.0315,-0.0306,-0.0308,-0.031,-0.0311,0,0,0,0,0,0,0,-0.0041,-0.0047,-0.0094,-0.0094,-0.0099,-0.0123,-0.013,-0.0161,-0.02,-0.0162,-0.0166,-0.0172,-0.0249,-0.0264,-0.027,-0.0316,-0.0306,-0.0309,-0.0311,-0.0313,-0.0372,-0.0371,0,0,0,0,0,0,-0.0028,-0.0044,-0.0091,-0.0096,-0.0073,-0.0123,-0.0131,-0.0138,-0.0199,-0.0209,-0.0172,-0.0174,-0.0257,-0.0266,-0.0273,-0.0273,-0.031,-0.0313,-0.0315,-0.0372,-0.0372,-0.0371,0,0,0,0,0,0,-0.0026,-0.0032,-0.0088,-0.0071,-0.0079,-0.0123,-0.0131,-0.0139,-0.0153,-0.0206,-0.0217,-0.0176,-0.0258,-0.0269,-0.0292,-0.0278,-0.0315,-0.0318,-0.0373,-0.0372,-0.0371,-0.0284,0,0,0,0,0,0,-0.0024,-0.0031,-0.0029,-0.007,-0.008,-0.0098,-0.0131,-0.014,-0.0156,-0.016,-0.0214,-0.0224,-0.0259,-0.0287,-0.0296,-0.0283,-0.032,-0.0373,-0.0372,-0.0372,-0.0287,-0.028,-0.0274,0,0,0,0,0,-0.0022,-0.0013,-0.0028,-0.0034,-0.0077,-0.0097,-0.0104,-0.0138,-0.0155,-0.0154,-0.019,-0.0222,-0.0288,-0.0289,-0.03,-0.0288,-0.0374,-0.0373,-0.0372,-0.029,-0.0281,-0.0274,0,0,0,0,0,0,0.0014,-0.0019,-0.0036,-0.0039,-0.0062,-0.0106,-0.0107,-0.0132,-0.016,-0.0162,-0.0216,-0.0227,-0.0243,-0.0278,-0.0278,-0.0303,-0.0336,-0.0337,-0.0271,-0.0263,-0.0256,-0.023,-0.0323,0,0,0,0,0,0.0024,0.0022,-0.0015,-0.0016,-0.0024,-0.0064,-0.0076,-0.0098,-0.0129,-0.0143,-0.018,-0.0218,-0.0247,-0.0264,-0.0296,-0.0308,-0.034,-0.0309,-0.0302,-0.0296,-0.0282,-0.0315,-0.031,-0.0367,-0.0367,-0.0367,0,0,0.0036,0.0019,0.0016,-0.0008,-0.0029,-0.0027,-0.0073,-0.0082,-0.008,-0.0148,-0.0154,-0.0196,-0.0245,-0.0258,-0.0269,-0.0285,-0.0298,-0.0295,-0.0289,-0.0278,-0.0314,-0.0308,-0.0303,-0.0367,-0.0367,-0.0367,0,0,0.0068,0.0047,0.006,0.0048,0.0026,0.0004,0.0005,-0.0032,-0.0046,-0.006,-0.0106,-0.0135,-0.0182,-0.0211,-0.0233,-0.0209,-0.0261,-0.0224,-0.0169,-0.0201,-0.0197,-0.0193,-0.0228,-0.0228,-0.0221,-0.0221,-0.0221,0,0.0086,0.0095,0.0061,0.0073,0.0073,0.0024,0.0043,0.0023,-0.0016,-0.0019,-0.0049,-0.0109,-0.0157,-0.0168,-0.0163,-0.0192,-0.0222,-0.0193,-0.0191,-0.0188,-0.0186,-0.0223,-0.0224,-0.0216,-0.0217,-0.0217,-0.0218,0,0.0126,0.0137,0.0146,0.0147,0.0143,0.0151,0.0123,0.0117,0.0091,0.0067,0.0049,-0.0016,-0.0051,-0.0074,-0.0114,-0.0117,-0.0147,-0.0177,-0.0207,-0.0174,-0.0217,-0.0219,-0.021,-0.0212,-0.0213,-0.0214,0,0,0.0153,0.0173,0.0175,0.0198,0.0185,0.0189,0.02,0.0196,0.0215,0.0163,0.0183,0.0112,0.0073,0.0045,-0.0012,-0.0044,-0.0063,-0.0098,-0.0102,-0.0124,-0.0136,-0.0176,-0.0184,-0.0093,-0.0093,-0.0093,-0.0173,0,0.0195,0.0247,0.0238,0.0288,0.0314,0.0287,0.0308,0.03,0.0278,0.0285,0.0218,0.0212,0.0119,0.0112,0.006,-0.0018,-0.0066,-0.0039,-0.0172,-0.0175,-0.0208,-0.0187,-0.016,-0.023,-0.0176,-0.0176,-0.0177,0,0.0235,0.0268,0.0327,0.0376,0.0385,0.0405,0.0434,0.0449,0.044,0.0429,0.0396,0.0345,0.0298,0.0216,0.0081,0.0103,-0.0011,-0.0087,-0.0093,-0.016,-0.0221,-0.0255,-0.0238,-0.0182,-0.0182,-0.0181,-0.0181,0,0.0278,0.0329,0.0384,0.0397,0.044,0.0464,0.0487,0.0492,0.0534,0.0529,0.0558,0.0471,0.0459,0.0308,0.013,0.0113,-0.002,-0.0067,-0.0218,-0.0223,-0.024,-0.0247,-0.0174,-0.0174,-0.0174,-0.0174,-0.0173,0,0.0325,0.0368,0.0411,0.0444,0.0525,0.0527,0.0608,0.0617,0.0659,0.0735,0.064,0.0672,0.0484,0.0378,0.0185,-0.0018,0.0011,-0.02,-0.0242,-0.0211,-0.0213,-0.0204,-0.0207,-0.0177,-0.0176,-0.0175,-0.0175,0,0.0362,0.0386,0.0459,0.052,0.0551,0.0607,0.0709,0.0764,0.0793,0.0891,0.0908,0.0847,0.0715,0.0492,0.0268,0.0076,-0.0128,-0.0221,-0.0174,-0.0209,-0.0325,-0.0322,-0.0379,-0.0381,-0.0383,-0.0384,-0.0386,0,0.038,0.042,0.0524,0.0557,0.0586,0.0677,0.0749,0.0829,0.0901,0.0998,0.1051,0.0976,0.092,0.0565,0.0229,-0.0105,-0.0149,-0.0306,-0.0344,-0.0309,-0.0344,-0.0338,-0.0333,-0.0336,-0.0337,-0.0337,-0.0338,0,0.0401,0.0439,0.0493,0.0591,0.0666,0.0781,0.0889,0.099,0.11,0.1203,0.1282,0.1255,0.0939,0.0622,0.0174,-0.0059,-0.0248,-0.0329,-0.0291,-0.0289,-0.0275,-0.0307,-0.0302,-0.0343,-0.0342,-0.0342,-0.0342,-0.0341,0.0377,0.0423,0.049,0.0601,0.0705,0.0845,0.0977,0.1103,0.1279,0.1454,0.1413,0.1402,0.1045,0.048,0.0095,-0.0295,-0.0293,-0.0433,-0.0428,-0.0424,-0.0405,-0.0394,-0.0482,-0.0482,-0.0482,-0.0482,-0.0483,0,0.0327,0.0383,0.048,0.0619,0.078,0.083,0.1047,0.1194,0.1429,0.1555,0.1628,0.1294,0.0935,0.0541,-0.0042,-0.0408,-0.0426,-0.0511,-0.0448,-0.0441,-0.0436,-0.0415,-0.0497,-0.0497,-0.0498,-0.0499,0,0,0.0254,0.034,0.0443,0.0673,0.0784,0.1005,0.1149,0.1372,0.1525,0.1652,0.1675,0.1576,0.1083,0.066,0.0166,-0.0149,-0.0206,-0.0216,-0.0171,-0.0033,-0.0022,-0.0366,-0.0325,0,0,0,0,0]}],[{"header":{"parameterUnit":"m.s-1","parameterCategory":2,"la1":30.2991,"la2":30.254,"lo1":-89.0895,"lo2":-89.0444,"dy":0.0017,"dx":0.0017,"nx":28,"ny":28,"refTime":"2025-04-16T21:00:00:Z","depth":"4","parameterNumber":2,"parameterNumberName":"U-component_of_CURRENTS"},"data":[0,0,0,0,0,0,0,0,0,0,0,0,0,0,0,0,0,0,0,0,0,0,0,0,0,0,0,0,0,0,0,0,0,0,0,0,0,0,0,0,0,0,0,0,0,0,0,0,0,0,0,0,0,0,0,0,0,0,0.1542,0.1543,0,0.1642,0.1643,0.1644,0.1724,0.1725,0.1726,0.1727,0.1821,0.1823,0.1824,0,0,0,0,0,0,0,0,0,0,0,0,0,0.1428,0.1429,0.1541,0.1543,0.1544,0.1641,0.1643,0.1644,0.1724,0.1725,0.1726,0.1727,0.1821,0.1822,0.1824,0,0,0,0,0,0,0,0,0,0,0,0,0,0.1495,0.143,0.1541,0.1597,0.1603,0.1641,0.1643,0.1644,0.1723,0.1725,0.1726,0.1728,0.182,0.1822,0.1825,0.181,0,0,0.1832,0.1833,0,0,0,0,0,0,0,0,0.1491,0.1499,0.1588,0.1594,0.1601,0.1673,0.1637,0.17,0.1723,0.1676,0.1727,0.1728,0.1771,0.1778,0.1791,0.1814,0.1818,0.1832,0.1834,0.1835,0.1835,0,0,0,0,0,0,0,0.1487,0.1496,0.1579,0.1589,0.1597,0.162,0.1631,0.1649,0.1712,0.168,0.1686,0.17,0.1775,0.1788,0.1793,0.182,0.1832,0.1834,0.1836,0.1837,0.1956,0.1957,0,0,0,0,0,0,0.1476,0.1491,0.1576,0.1582,0.1551,0.1621,0.1634,0.1647,0.1712,0.1725,0.1699,0.1704,0.1783,0.1791,0.1797,0.1888,0.1835,0.1837,0.1838,0.1954,0.1956,0.1958,0,0,0,0,0,0,0.1473,0.1483,0.1572,0.1541,0.1554,0.1622,0.1636,0.1648,0.1698,0.1727,0.1739,0.174,0.1785,0.1794,0.1852,0.1888,0.1838,0.184,0.1952,0.1955,0.1957,0.2002,0,0,0,0,0,0,0.147,0.1481,0.1505,0.154,0.1555,0.1616,0.1635,0.1649,0.1702,0.1711,0.1766,0.1774,0.1787,0.1849,0.1855,0.1891,0.1842,0.195,0.1953,0.1956,0.1999,0.2006,0.2013,0,0,0,0,0,0.1465,0.1484,0.1505,0.1517,0.158,0.1617,0.1628,0.1679,0.1703,0.1728,0.1774,0.1774,0.1874,0.1852,0.1859,0.1896,0.1948,0.1952,0.1956,0.1996,0.2005,0.2013,0,0,0,0,0,0,0.1448,0.1495,0.1519,0.1553,0.1594,0.1632,0.1666,0.1694,0.1749,0.1771,0.1793,0.1805,0.1871,0.1876,0.1851,0.1941,0.1912,0.1917,0.194,0.1949,0.1955,0.1949,0.1844,0,0,0,0,0,0.1453,0.1484,0.1527,0.1558,0.1581,0.1628,0.1657,0.1693,0.1737,0.1764,0.1805,0.1848,0.1884,0.1912,0.1944,0.1987,0.2005,0.2017,0.2024,0.203,0.2031,0.2093,0.2106,0.1971,0.1971,0.1971,0,0,0.1458,0.1487,0.1507,0.1558,0.1595,0.163,0.165,0.1705,0.1742,0.1763,0.184,0.1876,0.1902,0.196,0.199,0.1974,0.2082,0.2035,0.204,0.2037,0.2099,0.2112,0.2123,0.1973,0.1973,0.1973,0,0,0.1465,0.1507,0.1533,0.1568,0.1629,0.1657,0.1677,0.1739,0.1781,0.1845,0.1875,0.1933,0.199,0.202,0.2037,0.2098,0.2116,0.2118,0.215,0.2211,0.2222,0.2232,0.2283,0.2298,0.2121,0.2122,0.2122,0,0.1473,0.1504,0.1547,0.1579,0.1611,0.1669,0.1701,0.1746,0.1824,0.1861,0.1879,0.199,0.2014,0.2076,0.2105,0.2113,0.2153,0.2113,0.222,0.223,0.224,0.2289,0.2304,0.2124,0.2124,0.2124,0.2123,0,0.1485,0.1528,0.1547,0.1604,0.1645,0.1683,0.1745,0.1805,0.1861,0.1906,0.2,0.2045,0.2109,0.2131,0.2138,0.2223,0.2232,0.2221,0.2195,0.2256,0.2304,0.2319,0.2128,0.2127,0.2126,0.2126,0,0,0.1454,0.1538,0.1548,0.1584,0.1661,0.1695,0.1765,0.1836,0.1899,0.1978,0.2058,0.2123,0.2166,0.2188,0.2217,0.2271,0.2376,0.2284,0.2286,0.2329,0.2524,0.2355,0.2355,0.2397,0.24,0.2402,0.2534,0,0.1452,0.1503,0.1549,0.1614,0.1647,0.1723,0.1781,0.1863,0.1943,0.2041,0.2103,0.2195,0.2181,0.2242,0.2288,0.2373,0.2417,0.2341,0.2463,0.2466,0.2304,0.2367,0.241,0.2545,0.2548,0.2551,0.2553,0,0.1444,0.1481,0.1534,0.1626,0.165,0.1702,0.1817,0.1885,0.2019,0.2092,0.2186,0.2249,0.2357,0.2336,0.2477,0.2441,0.2479,0.2524,0.253,0.2362,0.2324,0.247,0.258,0.2578,0.2576,0.2574,0.2572,0,0.1391,0.1473,0.1514,0.1544,0.1653,0.1705,0.1777,0.1904,0.1988,0.215,0.2235,0.2347,0.245,0.2512,0.2587,0.2563,0.2734,0.2707,0.2579,0.2569,0.2661,0.2649,0.2781,0.2781,0.2781,0.278,0.278,0,0.1358,0.1399,0.15,0.1527,0.1595,0.169,0.1796,0.1889,0.2046,0.2145,0.2267,0.2358,0.2507,0.2606,0.2636,0.2653,0.277,0.2592,0.2591,0.2679,0.2667,0.2673,0.2658,0.2785,0.2784,0.2783,0.2782,0,0.1297,0.1363,0.142,0.1532,0.1578,0.1634,0.1805,0.1862,0.2043,0.2185,0.2249,0.2433,0.2561,0.2657,0.2795,0.2716,0.2751,0.2715,0.2818,0.282,0.2537,0.2524,0.2599,0.2595,0.259,0.2587,0.2584,0,0.1253,0.128,0.1409,0.143,0.1485,0.1594,0.1644,0.1841,0.1912,0.2195,0.223,0.2441,0.2532,0.2592,0.27,0.2745,0.27,0.2696,0.2586,0.2526,0.2519,0.2513,0.2505,0.2578,0.2576,0.2575,0.2574,0,0.1152,0.1221,0.1261,0.1327,0.1381,0.1451,0.1557,0.162,0.1843,0.2038,0.2177,0.2272,0.241,0.2502,0.2557,0.2572,0.2691,0.2652,0.266,0.2556,0.2501,0.2496,0.2494,0.256,0.2562,0.2563,0.2564,0,0.1041,0.1062,0.1123,0.1178,0.1242,0.1265,0.1362,0.1458,0.1587,0.1912,0.196,0.218,0.2387,0.2414,0.2461,0.2472,0.243,0.2336,0.2359,0.2376,0.2238,0.2131,0.2082,0,0,0,0,0,0.09,0.092,0.0954,0.1001,0.107,0.112,0.1261,0.1366,0.162,0.1658,0.1819,0.1937,0.2068,0.2182,0.2149,0.2337,0.241,0.2285,0.2305,0.2481,0.2497,0.2353,0,0,0,0,0,0,0.0789,0.082,0.0891,0.0847,0.0859,0.0912,0.1001,0.1166,0.1219,0.1498,0.1576,0.18,0.1941,0.2062,0.2105,0.2138,0.2106,0.2437,0.2431,0.2471,0.2486,0.25,0.2357,0,0,0,0,0]},{"header":{"parameterUnit":"m.s-1","parameterCategory":2,"la1":30.2991,"la2":30.254,"lo1":-89.0895,"lo2":-89.0444,"dy":0.0017,"dx":0.0017,"nx":28,"ny":28,"refTime":"2025-04-16T21:00:00:Z","depth":"4","parameterNumber":3,"parameterNumberName":"V-component_of_CURRENTS"},"data":[0,0,0,0,0,0,0,0,0,0,0,0,0,0,0,0,0,0,0,0,0,0,0,0,0,0,0,0,0,0,0,0,0,0,0,0,0,0,0,0,0,0,0,0,0,0,0,0,0,0,0,0,0,0,0,0,0,0,-0.0028,-0.0029,0,-0.0084,-0.0084,-0.0085,-0.0122,-0.0122,-0.0122,-0.0122,-0.0202,-0.0204,-0.0206,0,0,0,0,0,0,0,0,0,0,0,0,0,0.0021,0.002,-0.0028,-0.0029,-0.003,-0.0083,-0.0084,-0.0085,-0.0122,-0.0122,-0.0122,-0.0122,-0.0201,-0.0203,-0.0206,0,0,0,0,0,0,0,0,0,0,0,0,0,-0.0015,0.002,-0.0028,-0.0054,-0.0057,-0.0083,-0.0084,-0.0085,-0.0122,-0.0122,-0.0122,-0.0123,-0.02,-0.0203,-0.0206,-0.0218,0,0,-0.0215,-0.0216,0,0,0,0,0,0,0,0,-0.0013,-0.0016,-0.0049,-0.0052,-0.0055,-0.0096,-0.0096,-0.0131,-0.0122,-0.0098,-0.0122,-0.0123,-0.0168,-0.0174,-0.0184,-0.0222,-0.0225,-0.0215,-0.0217,-0.0218,-0.0219,0,0,0,0,0,0,0,-0.001,-0.0014,-0.0051,-0.005,-0.0054,-0.0071,-0.0076,-0.0103,-0.0131,-0.01,-0.0102,-0.0108,-0.017,-0.0181,-0.0186,-0.0226,-0.0215,-0.0218,-0.022,-0.0221,-0.0288,-0.0288,0,0,0,0,0,0,-0.0001,-0.0012,-0.0049,-0.0052,-0.0034,-0.0072,-0.0078,-0.0083,-0.0131,-0.0138,-0.0107,-0.0109,-0.0176,-0.0182,-0.0189,-0.0201,-0.0218,-0.0221,-0.0223,-0.0288,-0.0288,-0.0288,0,0,0,0,0,0,0.0001,-0.0003,-0.0047,-0.0033,-0.004,-0.0072,-0.0078,-0.0084,-0.0096,-0.0136,-0.0144,-0.0114,-0.0176,-0.0185,-0.021,-0.0205,-0.0222,-0.0225,-0.0287,-0.0288,-0.0288,-0.0229,0,0,0,0,0,0,0.0002,-0.0003,-0.0003,-0.0032,-0.004,-0.0059,-0.0078,-0.0085,-0.0099,-0.0102,-0.0144,-0.0152,-0.0177,-0.0205,-0.0213,-0.0209,-0.0227,-0.0287,-0.0288,-0.0288,-0.0231,-0.0227,-0.0224,0,0,0,0,0,0.0004,0.0005,-0.0003,-0.0007,-0.004,-0.0058,-0.0064,-0.0089,-0.0098,-0.0101,-0.0129,-0.015,-0.0211,-0.0207,-0.0216,-0.0213,-0.0287,-0.0287,-0.0288,-0.0233,-0.0228,-0.0224,0,0,0,0,0,0,0.0022,0.0,-0.0008,-0.0016,-0.0033,-0.0064,-0.0069,-0.0086,-0.011,-0.0112,-0.015,-0.016,-0.018,-0.0206,-0.0201,-0.0234,-0.0253,-0.0255,-0.0209,-0.0205,-0.0201,-0.0176,-0.023,0,0,0,0,0,0.0028,0.0025,-0.0,-0.0005,-0.0011,-0.0039,-0.005,-0.0065,-0.009,-0.0101,-0.013,-0.0161,-0.0188,-0.0203,-0.0231,-0.0247,-0.0277,-0.0253,-0.0249,-0.0246,-0.0232,-0.0272,-0.0271,-0.0288,-0.0288,-0.0288,0,0,0.0033,0.0022,0.0019,-0.0001,-0.0016,-0.0015,-0.0046,-0.0058,-0.0055,-0.0105,-0.0114,-0.015,-0.019,-0.0208,-0.0219,-0.0228,-0.026,-0.0246,-0.0243,-0.0231,-0.0272,-0.0271,-0.0269,-0.0288,-0.0288,-0.0288,0,0,0.005,0.0034,0.004,0.0032,0.0016,0.0001,0.0,-0.0028,-0.0039,-0.0054,-0.0088,-0.0117,-0.016,-0.0183,-0.0202,-0.0196,-0.024,-0.0211,-0.0172,-0.0211,-0.021,-0.0209,-0.0254,-0.0258,-0.0209,-0.0209,-0.0209,0,0.0058,0.0065,0.0039,0.0047,0.005,0.0013,0.0028,0.001,-0.0022,-0.0025,-0.0049,-0.0107,-0.0145,-0.016,-0.0161,-0.0186,-0.0219,-0.0183,-0.0205,-0.0205,-0.0205,-0.0252,-0.0256,-0.0206,-0.0206,-0.0207,-0.0207,0,0.0082,0.0091,0.0094,0.0098,0.0095,0.0099,0.008,0.0073,0.0052,0.0031,0.0007,-0.0047,-0.0078,-0.0102,-0.0131,-0.0147,-0.0176,-0.0195,-0.0211,-0.0199,-0.025,-0.0256,-0.0202,-0.0203,-0.0204,-0.0205,0,0,0.0092,0.011,0.0112,0.0134,0.0126,0.0129,0.0136,0.0133,0.0141,0.0096,0.0098,0.0041,0.0007,-0.0016,-0.0062,-0.0099,-0.0139,-0.0143,-0.0146,-0.0179,-0.0233,-0.0233,-0.024,-0.0165,-0.0165,-0.0165,-0.0271,0,0.0121,0.016,0.0158,0.0198,0.0219,0.0204,0.0217,0.0208,0.0185,0.0173,0.0116,0.0094,0.0041,0.0023,-0.0021,-0.0108,-0.015,-0.0108,-0.0247,-0.0251,-0.0245,-0.0245,-0.0167,-0.0276,-0.0277,-0.0278,-0.0279,0,0.0146,0.0173,0.0221,0.0265,0.0272,0.0289,0.031,0.0317,0.029,0.0273,0.0238,0.0184,0.0129,0.0078,-0.0052,-0.0025,-0.0118,-0.0191,-0.0197,-0.0217,-0.0261,-0.029,-0.029,-0.0289,-0.0288,-0.0288,-0.0287,0,0.0171,0.0218,0.0264,0.0277,0.0312,0.0335,0.0353,0.0345,0.0363,0.0335,0.033,0.0254,0.0213,0.0098,-0.0057,-0.0056,-0.0213,-0.0232,-0.032,-0.0322,-0.0316,-0.0316,-0.0322,-0.0322,-0.0322,-0.0321,-0.0321,0,0.0201,0.0239,0.0283,0.0308,0.0368,0.0378,0.0428,0.043,0.0438,0.0461,0.0384,0.0371,0.0215,0.0103,-0.0036,-0.0196,-0.02,-0.0308,-0.0344,-0.0292,-0.0288,-0.0322,-0.032,-0.0325,-0.0325,-0.0324,-0.0323,0,0.0214,0.0244,0.03,0.0356,0.0381,0.042,0.0488,0.0523,0.0519,0.0545,0.054,0.0454,0.0317,0.0142,-0.0055,-0.0164,-0.0322,-0.0382,-0.0318,-0.035,-0.0411,-0.0406,-0.0475,-0.0475,-0.0476,-0.0477,-0.0477,0,0.0219,0.0249,0.0332,0.0379,0.0408,0.0475,0.0527,0.056,0.0598,0.0593,0.0607,0.0492,0.0411,0.014,-0.005,-0.031,-0.0349,-0.0437,-0.0413,-0.0396,-0.0425,-0.0418,-0.0412,-0.0478,-0.0478,-0.0478,-0.0479,0,0.023,0.026,0.0316,0.0419,0.0487,0.0566,0.064,0.0677,0.0713,0.0698,0.0671,0.0534,0.0377,0.0164,-0.0046,-0.0234,-0.0378,-0.0444,-0.0444,-0.0422,-0.0401,-0.0427,-0.0421,-0.0481,-0.0481,-0.048,-0.048,0,0.025,0.0289,0.0379,0.0469,0.0559,0.0654,0.068,0.0735,0.0773,0.0761,0.0745,0.0575,0.0471,0.0201,0.0006,-0.0176,-0.0216,-0.0274,-0.0283,-0.0283,-0.0198,-0.0141,-0.0166,0,0,0,0,0,0.0287,0.0356,0.043,0.0546,0.0627,0.0689,0.0767,0.0785,0.0805,0.0802,0.0783,0.064,0.0374,0.0251,0.0074,-0.0016,-0.026,-0.0233,-0.0333,-0.0493,-0.0491,-0.0423,0,0,0,0,0,0,0.0333,0.0414,0.0448,0.0594,0.0674,0.0782,0.0836,0.0841,0.0838,0.0819,0.0682,0.0595,0.0334,0.0483,0.0073,0.0014,-0.0075,-0.0367,-0.0371,-0.0495,-0.0493,-0.049,-0.042,0,0,0,0,0]}]]